Back to catalog

COSMOS 970 DEB

AliveLEO
NORAD 12870·DEBRIS·🇷🇺 Russia

Launched Dec 21, 1977 from Baikonur Cosmodrome

Loading…

Next Passes (next 24 hours)

TLE

FreshSource: Space-Track

Epoch: Sep 14, 2026, 00:47 UTC

1 12870U 77121AY  26257.03279410  .00000519  00000-0  46816-3 0  9997
2 12870  65.7223 277.6766 0115118 343.4997  36.4513 13.89421960441792

Track COSMOS 970 DEB in real time with AllMySat

Download on the App Store